JBU5496 KFLL-SEGU

Flight info

Callsign JBU5496
Flight time N/A
Altitude 37000
Route MAYNR3 FUNDI UM335 ARNAL UL465 SEKMA/N0451F390 UL465 TBG UL780 UGUPI UGUPI2
Aircraft E190/M-SDE3GILORVW/S

Departure

Time 2026-05-06 01:07
Airport Fort Lauderdale Hollywood International Airport (KFLL)

Arrival

Time N/A
Airport José Joaquín de Olmedo International Airport (SEGU)
Time Latitude Longitude Altitude Speed Heading
2026-05-06 00:16 26.07262 -80.14657 14 ft 0 kts 36°
2026-05-06 00:41 26.07243 -80.14671 15 ft 4 kts 25°
2026-05-06 00:42 26.07218 -80.14679 16 ft 4 kts 350°
2026-05-06 00:42 26.07202 -80.14669 16 ft 1 kts 288°
2026-05-06 00:51 26.07202 -80.14670 16 ft 1 kts 288°
2026-05-06 00:52 26.07203 -80.14674 16 ft 0 kts 288°
2026-05-06 00:52 26.07204 -80.14677 14 ft 1 kts 288°
2026-05-06 00:52 26.07207 -80.14690 16 ft 3 kts 283°
2026-05-06 00:52 26.07211 -80.14717 14 ft 5 kts 277°
2026-05-06 00:53 26.07208 -80.14759 14 ft 6 kts 251°
2026-05-06 00:53 26.07176 -80.14798 15 ft 8 kts 225°
2026-05-06 00:53 26.07135 -80.14849 14 ft 10 kts 239°
2026-05-06 00:53 26.07145 -80.14922 15 ft 11 kts 311°
2026-05-06 00:54 26.07167 -80.14984 14 ft 8 kts 255°
2026-05-06 00:54 26.07128 -80.15037 14 ft 10 kts 224°
2026-05-06 00:54 26.07088 -80.15082 14 ft 6 kts 226°
2026-05-06 00:54 26.07054 -80.15117 14 ft 8 kts 217°
2026-05-06 00:55 26.06999 -80.15129 14 ft 9 kts 181°
2026-05-06 00:55 26.06928 -80.15130 14 ft 11 kts 181°
2026-05-06 00:55 26.06846 -80.15132 14 ft 13 kts 181°
2026-05-06 00:55 26.06753 -80.15132 15 ft 14 kts 179°
2026-05-06 00:56 26.06705 -80.15148 19 ft 6 kts 223°
2026-05-06 00:56 26.06696 -80.15189 20 ft 6 kts 269°
2026-05-06 00:56 26.06696 -80.15237 19 ft 8 kts 270°
2026-05-06 00:56 26.06697 -80.15335 15 ft 13 kts 270°
2026-05-06 00:57 26.06697 -80.15398 15 ft 8 kts 270°
2026-05-06 00:57 26.06697 -80.15468 15 ft 10 kts 270°
2026-05-06 00:57 26.06696 -80.15553 15 ft 12 kts 269°
2026-05-06 00:57 26.06698 -80.15652 15 ft 14 kts 271°
2026-05-06 00:58 26.06700 -80.15748 15 ft 10 kts 270°
2026-05-06 00:58 26.06694 -80.15801 15 ft 5 kts 248°
2026-05-06 00:58 26.06679 -80.15815 16 ft 0 kts 209°
2026-05-06 01:03 26.06677 -80.15816 15 ft 1 kts 209°
2026-05-06 01:04 26.06672 -80.15819 15 ft 1 kts 209°
2026-05-06 01:04 26.06663 -80.15824 16 ft 2 kts 209°
2026-05-06 01:04 26.06651 -80.15832 15 ft 2 kts 208°
2026-05-06 01:04 26.06644 -80.15833 15 ft 0 kts 186°
2026-05-06 01:05 26.06643 -80.15834 15 ft 0 kts 186°
2026-05-06 01:05 26.06641 -80.15833 15 ft 2 kts 181°
2026-05-06 01:05 26.06613 -80.15825 17 ft 5 kts 160°
2026-05-06 01:06 26.06588 -80.15777 17 ft 9 kts 90°
2026-05-06 01:06 26.06588 -80.15766 18 ft 0 kts 89°
2026-05-06 01:06 26.06588 -80.15765 18 ft 1 kts 89°
2026-05-06 01:07 26.06590 -80.15606 22 ft 52 kts 90°
2026-05-06 01:07 26.06582 -80.14934 17 ft 120 kts 90°
2026-05-06 01:07 26.06615 -80.13818 190 ft 161 kts 87°
2026-05-06 01:07 26.06742 -80.12504 655 ft 177 kts 79°
2026-05-06 01:08 26.07023 -80.11174 380 ft 180 kts 73°
2026-05-06 01:08 26.07439 -80.09938 407 ft 164 kts 65°
2026-05-06 01:08 26.07826 -80.09062 12 ft 0 kts 70°